Wind_Speed
9 10 11 11 12 12 12 11 11 10 10 9 8 8 7 7 7 7 7 7 6 6 6 5 5 5 5 5 5 6 7 7 8 9 9 10 11 11 12 13 14 14 15 16 16 17 17 17 18
10 10 11 11 11 11 11 11 11 10 9 8 8 7 6 6 7 7 6 6 6 6 5 5 5 4 4 5 5 6 7 8 8 9 10 10 11 12 13 13 14 15 15 16 17 17 18 18 18
12 11 11 12 12 11 11 11 10 10 9 9 8 7 7 6 6 6 6 6 6 6 5 5 5 4 5 5 6 7 7 8 9 10 11 12 12 13 14 14 15 16 16 17 17 18 19 19 20
14 13 13 12 12 12 12 11 10 9 10 9 8 7 7 6 6 6 6 6 6 5 5 5 5 5 6 6 7 8 8 9 10 12 12 13 14 15 15 16 16 17 18 18 19 19 20 20 21
16 15 14 13 13 12 12 11 10 10 10 9 8 7 7 6 6 6 6 5 5 5 5 6 6 6 7 7 8 9 10 11 12 13 14 15 15 16 17 17 18 18 19 20 20 21 21 22 22
18 17 16 15 14 13 13 12 12 11 10 9 8 7 7 6 6 6 6 5 5 5 5 6 6 7 8 9 9 10 11 12 13 14 15 16 16 17 18 19 19 20 20 21 22 23 23 23 24
20 19 18 17 16 14 13 13 13 12 11 10 9 8 8 7 7 6 7 6 6 6 6 7 7 8 9 9 10 11 12 13 14 15 15 16 18 18 19 20 21 21 22 22 23 24 24 25 25
23 22 21 19 18 16 15 15 14 13 12 10 10 9 9 8 7 7 7 8 7 7 7 8 9 10 11 12 12 13 14 15 15 16 17 18 19 20 20 21 22 22 23 24 24 25 25 26 26
27 25 23 21 20 19 18 17 16 14 13 12 11 10 10 9 8 8 8 9 9 9 10 10 11 12 12 13 14 15 16 17 17 18 19 19 20 21 22 22 23 24 24 25 26 26 26 27 27
30 27 25 24 23 22 20 19 18 17 15 13 12 12 11 11 10 9 9 10 11 11 12 12 12 13 14 14 15 16 17 18 19 20 21 21 22 23 24 24 25 25 26 26 27 27 28 28 29
33 30 29 28 26 25 23 21 20 19 17 16 15 14 13 13 12 12 11 12 12 13 13 14 14 15 16 16 17 18 19 20 21 22 23 23 24 25 25 26 26 27 27 28 28 28 29 29 29
36 34 33 31 29 28 26 24 23 22 20 19 18 16 16 15 15 14 14 14 14 14 15 16 16 17 18 19 19 20 21 22 23 24 25 25 26 27 27 28 28 28 28 29 29 29 29 30 31
39 37 36 34 33 31 29 27 25 24 24 22 20 19 18 18 18 17 17 16 16 16 17 18 19 20 21 21 22 23 23 24 25 26 27 27 28 29 29 30 30 30 30 30 30 30 31 31 32
41 40 39 37 36 34 32 30 28 27 28 25 24 22 21 20 20 20 20 19 19 19 19 20 21 22 23 24 25 25 26 26 27 28 29 29 30 30 31 31 31 31 31 32 32 32 32 33 33
44 43 42 40 39 37 36 34 31 30 30 28 27 26 25 24 23 23 23 22 22 22 22 23 23 24 25 26 27 27 28 28 29 29 30 31 31 31 32 32 32 32 33 33 33 33 33 34 34
47 46 44 41 41 40 39 35 34 34 33 31 30 29 28 27 26 26 26 25 25 25 25 25 26 26 27 28 29 29 30 30 30 31 31 32 32 32 32 33 33 33 33 34 34 34 34 34 34
49 47 44 43 43 43 42 38 37 36 35 33 32 32 31 29 29 29 29 28 28 28 28 28 28 28 29 30 30 31 31 32 32 32 32 33 33 33 34 34 34 34 34 34 34 34 34 34 34
47 46 44 44 44 45 44 40 39 39 37 35 34 34 33 32 31 32 31 31 31 31 31 31 31 31 31 31 32 32 32 33 33 32 33 33 34 34 34 34 34 34 34 34 34 34 34 34 35
47 47 46 45 46 46 45 42 40 41 40 37 36 36 35 34 33 33 32 32 32 32 32 32 32 32 32 32 32 32 33 33 32 32 33 34 34 34 34 34 34 34 34 34 34 34 34 35 35
48 48 46 46 46 47 46 44 42 42 41 39 38 37 36 35 34 34 34 33 33 32 32 33 33 33 33 33 33 33 33 33 33 33 34 34 35 35 34 34 34 34 34 34 34 35 35 35 35
48 47 45 45 46 47 47 46 43 42 42 40 39 38 37 36 35 35 35 35 34 34 34 34 34 34 33 33 33 33 33 33 33 34 34 35 35 35 34 34 34 34 34 34 35 35 35 35 35
47 44 44 45 46 47 48 48 43 41 41 40 39 39 38 37 37 36 36 36 35 35 34 34 34 33 33 33 33 34 34 33 34 35 35 35 34 34 34 34 34 34 34 35 35 35 35 35 35
45 43 44 45 47 48 47 49 43 41 40 39 39 39 38 37 37 36 35 35 35 35 34 34 34 33 33 33 33 34 34 34 34 34 34 34 34 34 34 34 34 34 34 35 35 35 35 36 36
45 46 46 47 48 50 46 47 45 39 37 37 38 38 37 36 36 35 34 34 34 34 33 33 33 33 33 33 33 33 33 33 34 34 34 34 34 34 34 34 34 34 35 35 35 36 36 37 37
49 48 48 49 50 50 45 47 46 37 36 36 36 35 35 35 34 33 33 33 33 32 32 33 33 32 32 32 32 33 33 33 33 33 33 34 34 34 34 34 34 35 35 35 36 37 37 37 38
50 49 50 50 49 47 45 46 43 38 36 35 34 34 34 34 33 33 33 32 32 31 31 32 32 31 31 31 32 32 33 32 32 32 33 33 33 34 34 35 35 35 36 36 37 38 38 38 39
50 50 47 47 48 47 47 44 41 38 35 33 33 32 32 32 32 32 32 31 31 31 31 31 31 31 31 31 31 31 31 31 31 32 32 33 34 34 35 35 35 36 36 37 37 37 38 39 40
50 48 49 49 48 48 47 44 39 35 33 32 31 31 31 31 32 32 31 31 30 30 30 30 30 30 30 31 31 31 31 31 31 31 32 33 34 34 34 35 36 36 37 37 37 38 39 40 41
51 51 50 49 49 48 47 43 37 34 33 32 30 30 30 30 30 30 30 30 30 30 30 30 30 29 29 29 30 30 30 30 30 31 32 33 34 35 35 35 36 37 37 37 38 39 40 41 41
50 49 49 49 48 46 45 42 36 34 33 32 31 30 29 29 29 29 29 29 29 29 30 29 29 29 29 29 29 29 30 30 30 31 32 34 34 35 35 36 36 36 37 38 39 40 41 41 42
Wind_Direction
204 201 199 198 199 200 199 199 198 198 198 198 199 199 198 201 200 197 198 200 203 210 218 226 236 248 259 267 271 274 277 278 281 282 284 286 285 286 288 289 289 290 290 290 291 291 291 292 292
208 205 203 200 199 199 199 198 197 197 198 199 199 197 198 200 200 198 197 198 202 209 216 225 237 251 264 272 277 282 285 286 286 286 288 289 288 288 289 290 291 291 290 290 290 291 292 292 292
214 210 208 204 201 201 202 202 200 196 199 202 202 198 196 197 200 203 204 205 211 220 227 233 243 254 264 273 279 283 286 286 286 288 289 290 290 291 291 291 290 290 290 290 290 291 292 292 292
217 215 212 209 207 207 209 207 204 200 200 203 203 200 199 201 204 209 211 215 220 228 236 243 251 261 268 274 280 285 287 287 288 288 289 289 289 289 289 290 290 290 291 291 291 291 291 291 290
220 218 216 214 214 213 215 212 209 206 205 203 204 206 209 209 211 216 218 222 225 232 242 253 260 266 271 276 282 284 286 288 289 288 287 287 288 287 288 288 289 289 290 290 291 291 291 290 290
222 221 220 220 221 220 219 215 212 212 211 209 209 212 217 217 218 223 229 233 238 244 255 264 269 273 276 279 282 286 286 287 289 289 288 287 288 289 289 289 289 289 290 290 291 291 291 291 291
224 222 222 223 225 226 226 223 219 220 220 218 219 223 225 226 227 231 239 246 250 255 263 270 275 279 281 283 285 287 288 289 290 290 290 290 289 289 289 289 289 289 290 291 292 292 292 292 292
226 225 224 226 227 228 230 230 228 226 225 224 224 228 234 235 236 238 244 252 256 260 267 274 278 281 283 284 286 287 288 289 290 291 291 290 290 290 290 289 289 289 290 291 291 292 291 291 291
227 227 226 227 228 229 231 232 234 233 231 230 229 234 241 246 248 246 249 257 263 266 271 276 280 284 286 287 287 288 289 290 290 291 291 291 291 291 291 291 291 291 291 291 291 291 291 291 291
228 228 228 230 231 231 232 233 236 237 236 236 236 239 245 250 254 254 256 262 268 271 274 278 282 285 287 289 290 290 290 291 291 291 291 291 291 291 292 292 292 292 292 291 291 291 291 291 291
230 230 230 231 232 233 234 234 236 240 240 239 241 245 248 252 256 257 259 263 269 273 276 279 282 286 287 289 291 291 292 292 292 292 291 291 291 291 291 291 292 292 292 291 291 291 291 291 292
231 230 232 233 233 234 235 236 236 239 242 242 243 247 252 255 258 260 262 264 268 272 276 279 282 284 286 287 289 290 291 292 293 292 291 291 291 291 291 291 291 292 292 291 291 290 291 291 292
231 231 232 233 235 235 236 237 237 240 243 244 246 249 253 257 261 264 266 267 269 272 275 278 282 284 285 287 288 289 289 290 291 290 290 291 291 290 290 291 291 291 291 291 290 290 290 291 292
231 232 233 233 235 236 237 237 238 240 245 247 250 252 254 257 261 264 267 269 271 273 275 277 280 282 284 286 287 288 289 289 290 289 289 290 290 290 290 290 289 289 289 290 290 290 290 291 291
231 232 233 233 235 237 238 239 240 242 246 249 252 254 256 259 262 265 267 269 272 275 276 278 279 281 282 284 285 287 288 289 289 289 289 289 290 290 289 289 289 289 289 289 290 290 290 290 291
232 233 234 234 236 237 239 239 242 244 247 249 253 255 257 260 263 265 268 270 272 275 277 278 279 280 281 283 284 285 286 287 288 288 288 289 289 289 289 289 289 288 288 289 289 289 289 290 291
232 233 234 235 237 239 240 239 243 245 247 249 252 254 257 259 263 265 268 270 272 274 277 278 279 280 281 282 284 284 285 286 287 288 288 288 289 289 289 288 288 288 289 289 289 289 289 290 290
234 235 235 236 237 239 240 240 242 245 247 248 251 254 257 259 262 264 267 269 271 273 276 278 279 280 281 282 284 284 285 286 287 287 287 288 288 288 288 288 288 289 289 289 289 289 289 289 290
235 235 236 237 238 240 240 240 241 245 247 248 251 254 257 259 260 263 266 268 270 272 275 277 279 280 281 282 283 283 284 285 286 286 286 287 288 287 287 288 288 288 289 289 289 289 289 289 290
234 235 235 237 239 241 241 240 240 243 247 249 251 254 256 257 260 263 265 267 269 271 274 276 278 279 280 281 282 283 284 284 285 285 285 285 287 287 287 287 287 288 288 288 288 289 289 290 290
234 235 236 238 240 243 243 241 240 243 247 249 251 253 256 258 260 263 265 267 269 271 273 275 276 278 279 280 281 282 283 284 284 284 285 286 287 286 286 287 287 287 287 288 288 289 289 290 291
234 236 237 239 240 243 244 244 239 243 246 249 251 254 256 258 260 262 264 267 269 270 272 273 275 277 278 279 280 281 282 283 283 284 286 286 286 285 285 286 287 287 287 288 289 289 290 291 291
233 235 237 239 241 242 243 247 240 242 245 248 252 254 256 258 260 262 263 265 267 269 271 273 275 276 277 278 278 279 281 282 283 285 285 285 284 284 285 286 286 286 287 288 288 289 289 291 291
231 232 235 237 239 242 242 247 244 242 246 248 251 254 256 258 260 262 263 265 266 268 270 272 273 274 275 277 277 279 280 281 282 283 283 283 283 284 285 286 286 286 287 288 287 288 290 290 291
227 229 233 236 238 241 242 246 247 243 245 247 249 252 255 258 260 262 264 265 266 268 270 272 273 274 275 276 277 278 279 280 281 281 281 282 283 284 284 285 285 286 287 288 288 289 290 290 292
229 231 234 238 242 244 244 245 246 246 245 247 249 252 254 257 259 261 263 264 266 268 270 272 273 274 275 276 276 277 278 279 279 280 281 282 283 283 284 284 285 286 287 288 289 289 289 291 293
228 231 235 238 242 244 244 244 245 247 247 248 249 251 253 256 258 260 262 264 266 268 270 271 273 274 275 276 276 277 277 278 278 279 281 282 282 283 284 285 286 286 287 288 289 290 290 292 293
229 231 232 235 238 242 244 244 245 246 248 249 250 251 253 255 258 260 262 264 266 268 270 271 273 274 275 276 276 276 276 276 277 279 280 280 282 283 284 285 286 286 287 288 289 290 291 292 294
227 228 231 234 238 241 245 245 245 247 247 248 249 251 253 255 257 259 262 263 265 267 269 271 272 273 274 275 275 276 276 276 277 278 279 280 282 283 284 285 286 286 286 287 288 290 291 293 294
230 231 233 235 238 241 245 245 244 246 247 248 250 251 253 255 256 258 260 263 265 267 268 269 271 273 274 274 275 276 276 276 277 278 279 280 282 283 284 285 285 286 286 287 289 290 292 294 295
Height
5859 5860 5861 5863 5865 5866 5866 5867 5868 5869 5870 5871 5872 5873 5874 5875 5876 5879 5877 5877 5877 5878 5879 5879 5880 5880 5880 5881 5881 5881 5881 5881 5881 5881 5881 5880 5880 5879 5879 5878 5877 5876 5875 5874 5873 5872 5872 5871 5870
5858 5859 5861 5862 5863 5864 5865 5866 5867 5868 5869 5870 5871 5872 5873 5873 5874 5875 5875 5876 5876 5877 5878 5878 5879 5879 5879 5880 5880 5880 5880 5880 5880 5879 5879 5878 5878 5877 5877 5876 5875 5874 5873 5872 5871 5870 5869 5868 5867
5857 5858 5860 5860 5861 5863 5864 5865 5866 5867 5868 5868 5869 5871 5872 5872 5872 5873 5874 5875 5875 5876 5877 5877 5877 5878 5878 5878 5879 5878 5878 5878 5878 5877 5877 5876 5876 5875 5874 5873 5872 5871 5870 5869 5868 5867 5866 5865 5864
5855 5856 5858 5859 5859 5861 5862 5864 5864 5865 5866 5867 5868 5870 5870 5871 5871 5872 5872 5873 5874 5875 5875 5876 5876 5877 5877 5877 5877 5877 5877 5876 5876 5875 5875 5874 5874 5873 5872 5871 5870 5869 5867 5866 5865 5864 5863 5862 5861
5852 5854 5856 5857 5857 5859 5861 5862 5863 5864 5865 5866 5867 5868 5869 5870 5870 5871 5871 5872 5873 5873 5874 5874 5875 5875 5875 5875 5875 5875 5875 5874 5874 5873 5872 5872 5871 5870 5869 5868 5867 5865 5864 5863 5862 5860 5859 5858 5857
5850 5852 5854 5854 5855 5857 5859 5860 5861 5862 5863 5865 5866 5867 5868 5869 5869 5870 5870 5870 5871 5872 5872 5873 5873 5873 5873 5873 5873 5873 5873 5872 5871 5871 5870 5869 5868 5867 5866 5865 5863 5862 5861 5859 5858 5857 5855 5854 5852
5847 5849 5850 5852 5853 5855 5857 5858 5859 5860 5861 5863 5864 5865 5866 5867 5868 5868 5868 5869 5869 5870 5871 5871 5871 5871 5871 5871 5871 5870 5870 5869 5869 5868 5867 5866 5865 5863 5862 5861 5860 5858 5857 5856 5854 5853 5851 5849 5848
5843 5846 5847 5848 5850 5852 5854 5855 5857 5858 5859 5861 5862 5863 5864 5865 5866 5867 5867 5867 5868 5868 5869 5869 5869 5869 5869 5869 5868 5868 5867 5866 5866 5865 5863 5862 5861 5860 5859 5857 5856 5854 5853 5852 5850 5848 5847 5845 5843
5838 5842 5843 5845 5847 5849 5851 5852 5854 5855 5857 5858 5859 5861 5862 5862 5864 5865 5865 5865 5866 5866 5866 5866 5866 5866 5866 5866 5865 5865 5864 5863 5862 5861 5860 5859 5858 5856 5855 5853 5852 5850 5849 5847 5845 5843 5841 5840 5838
5833 5837 5839 5841 5843 5845 5847 5849 5850 5852 5854 5855 5857 5858 5859 5860 5861 5862 5863 5863 5863 5863 5864 5864 5863 5863 5863 5862 5862 5861 5861 5860 5859 5857 5856 5855 5853 5852 5851 5849 5847 5846 5844 5842 5840 5838 5836 5834 5832
5828 5832 5834 5835 5838 5841 5843 5845 5847 5848 5850 5852 5853 5854 5855 5856 5857 5859 5860 5860 5860 5860 5860 5860 5860 5860 5859 5859 5858 5858 5857 5856 5855 5853 5852 5850 5849 5848 5846 5844 5843 5841 5839 5837 5835 5833 5831 5829 5826
5821 5825 5827 5830 5833 5835 5838 5840 5843 5844 5846 5848 5849 5851 5852 5853 5854 5855 5856 5857 5857 5857 5857 5856 5856 5856 5855 5855 5854 5853 5852 5851 5850 5849 5847 5846 5844 5843 5841 5839 5837 5835 5833 5831 5829 5827 5825 5823 5820
5814 5818 5821 5824 5827 5830 5833 5835 5838 5840 5841 5843 5845 5847 5848 5849 5850 5851 5852 5853 5853 5853 5853 5853 5852 5852 5851 5850 5849 5849 5847 5846 5845 5844 5842 5840 5839 5837 5835 5833 5832 5830 5828 5826 5823 5821 5819 5816 5814
5807 5810 5814 5817 5820 5823 5826 5829 5833 5835 5835 5838 5840 5842 5843 5844 5845 5846 5847 5848 5848 5849 5849 5848 5848 5847 5846 5845 5844 5843 5842 5841 5839 5838 5836 5835 5833 5831 5829 5827 5825 5823 5821 5819 5817 5815 5812 5810 5807
5797 5802 5806 5810 5814 5817 5820 5824 5827 5828 5830 5832 5834 5836 5838 5839 5840 5841 5842 5842 5843 5843 5843 5843 5843 5842 5841 5840 5839 5838 5836 5835 5833 5832 5830 5829 5827 5825 5823 5821 5819 5817 5815 5813 5810 5808 5806 5803 5801
5788 5793 5798 5804 5806 5809 5814 5818 5820 5822 5824 5826 5828 5830 5832 5833 5834 5835 5836 5837 5837 5837 5837 5837 5837 5837 5835 5834 5833 5832 5830 5829 5827 5826 5824 5822 5820 5819 5817 5814 5812 5810 5808 5806 5804 5802 5799 5796 5794
5779 5785 5791 5796 5798 5801 5805 5811 5813 5815 5817 5820 5822 5824 5825 5827 5828 5829 5829 5830 5830 5831 5831 5831 5831 5830 5829 5828 5827 5826 5824 5822 5821 5819 5817 5815 5814 5812 5810 5808 5805 5803 5801 5799 5797 5794 5792 5789 5787
5773 5778 5783 5787 5790 5792 5796 5802 5805 5806 5810 5813 5815 5817 5818 5820 5822 5822 5823 5823 5824 5824 5824 5823 5823 5823 5822 5821 5820 5818 5817 5815 5814 5812 5810 5809 5807 5804 5802 5800 5798 5796 5794 5792 5790 5787 5785 5782 5779
5764 5768 5773 5778 5780 5783 5787 5793 5797 5798 5801 5805 5808 5809 5811 5813 5814 5815 5816 5816 5817 5817 5817 5816 5816 5815 5814 5813 5812 5811 5810 5808 5807 5805 5803 5801 5799 5797 5795 5793 5791 5789 5787 5785 5782 5780 5778 5775 5772
5752 5757 5763 5768 5771 5773 5778 5783 5788 5790 5793 5797 5800 5802 5803 5805 5806 5807 5808 5808 5809 5809 5809 5809 5808 5807 5807 5806 5804 5803 5802 5801 5799 5798 5796 5793 5791 5790 5788 5786 5784 5782 5779 5777 5775 5772 5770 5767 5764
5742 5749 5755 5759 5761 5763 5767 5773 5779 5783 5785 5788 5791 5793 5795 5797 5799 5799 5800 5800 5801 5801 5801 5801 5800 5800 5799 5798 5797 5795 5794 5793 5792 5790 5788 5786 5784 5782 5780 5778 5776 5774 5772 5769 5767 5764 5762 5759 5757
5734 5742 5745 5748 5750 5754 5757 5761 5770 5774 5777 5780 5783 5785 5787 5789 5790 5791 5792 5792 5793 5793 5793 5793 5792 5792 5791 5790 5789 5787 5786 5785 5784 5782 5780 5778 5776 5774 5772 5770 5768 5766 5764 5762 5759 5757 5754 5752 5749
5727 5732 5734 5737 5740 5743 5747 5749 5760 5765 5768 5772 5774 5776 5778 5780 5781 5782 5783 5784 5784 5784 5784 5784 5784 5783 5783 5782 5781 5780 5779 5777 5775 5774 5772 5770 5768 5766 5765 5763 5760 5758 5756 5754 5752 5749 5747 5744 5741
5715 5719 5722 5725 5728 5731 5739 5740 5747 5757 5761 5764 5766 5767 5769 5771 5772 5773 5774 5775 5776 5776 5776 5776 5775 5775 5774 5773 5773 5772 5770 5769 5767 5766 5764 5762 5760 5759 5757 5755 5753 5751 5748 5746 5744 5741 5739 5736 5733
5701 5708 5711 5713 5716 5722 5730 5731 5738 5749 5752 5754 5757 5759 5760 5762 5763 5764 5765 5766 5767 5767 5767 5767 5767 5767 5766 5765 5764 5763 5762 5761 5759 5758 5756 5754 5753 5751 5749 5747 5745 5743 5741 5738 5736 5733 5731 5728 5725
5693 5698 5703 5707 5710 5716 5720 5722 5732 5738 5742 5745 5748 5750 5751 5753 5755 5756 5757 5758 5758 5758 5759 5759 5758 5758 5757 5757 5756 5755 5754 5752 5751 5750 5748 5746 5745 5743 5741 5739 5737 5735 5733 5730 5728 5725 5722 5719 5716
5683 5687 5695 5699 5701 5705 5708 5715 5723 5728 5732 5736 5739 5741 5743 5745 5746 5747 5748 5749 5749 5750 5750 5750 5750 5750 5749 5748 5747 5746 5745 5744 5743 5742 5740 5738 5737 5735 5733 5731 5729 5727 5724 5722 5719 5716 5714 5711 5707
5673 5679 5682 5686 5690 5693 5699 5706 5714 5720 5723 5727 5730 5732 5734 5736 5737 5738 5739 5740 5741 5741 5741 5741 5741 5741 5740 5739 5739 5738 5737 5736 5735 5733 5732 5730 5728 5726 5725 5723 5720 5718 5716 5713 5710 5708 5705 5702 5698
5662 5666 5671 5677 5680 5685 5690 5700 5708 5712 5715 5718 5721 5723 5725 5727 5728 5730 5731 5731 5732 5733 5733 5733 5733 5732 5732 5731 5730 5730 5729 5727 5726 5725 5723 5722 5720 5718 5716 5714 5712 5709 5707 5704 5702 5699 5696 5692 5689
5652 5657 5663 5668 5673 5678 5682 5693 5699 5703 5706 5709 5712 5714 5717 5718 5720 5721 5722 5723 5723 5724 5724 5724 5724 5724 5723 5723 5722 5721 5720 5719 5718 5717 5715 5713 5711 5709 5707 5705 5703 5701 5698 5695 5693 5690 5686 5683 5679